CAPE
0 0 0 0 0 0 0 0 0 0 0 0 0 0 0 0 0 0 0 5 0 0 0 0 0 0 2 0 0 0 26 41 0 87 462 896 987 1424 1134 1471 1352 1518 1822 1713 1910 1482 1624 1779 1967 1798 1978 1771 1710 1665 2019 2067 2198 2166 2052 2003 1947 1948 1718 1703 1755 1602 1173 1097 1350 1204 1083 1089 1252 1380 1463 1511 1422 1258 1254 1406 1918 2772 2865 2953 2946 2853
0 0 0 0 0 0 0 0 0 0 0 0 0 0 0 0 0 0 0 0 0 0 0 2 0 1 8 11 11 2 14 79 24 44 259 643 854 864 1406 1475 1305 1078 1170 2110 1776 1758 1206 1537 1968 1940 1996 2176 2026 2081 2134 2268 2402 2456 2220 2204 2077 2040 1909 1785 1310 1044 1227 1250 1192 1138 1132 1236 1190 1364 1504 1770 1788 1443 1254 1618 2044 2679 2848 2806 2973 2850
0 0 0 0 0 0 0 0 0 0 0 0 0 0 0 0 0 0 0 0 0 0 0 0 0 2 4 3 3 8 0 2 15 15 82 553 780 851 1162 1215 1024 936 1263 1164 2018 1852 1829 1747 2046 2190 2291 2167 2200 2115 2287 2517 2440 2556 2458 2574 2425 2291 1956 1880 1605 1551 1526 1408 1394 1282 1392 1318 1371 1448 1549 1697 1856 1634 1162 1518 2078 2603 2964 2924 2852 2818
0 0 0 0 0 0 0 0 0 0 0 0 0 0 0 0 0 0 0 0 0 0 0 0 0 1 9 12 8 0 0 2 0 6 8 146 1099 1163 1240 1516 1278 1130 1263 1425 2069 1921 2019 1893 2081 2277 2444 2457 2316 2449 2537 2621 2775 2781 2652 2726 2664 2495 2329 2101 1949 1779 1717 1711 1804 1868 1908 1558 1404 1469 1779 1858 1677 1756 1313 1490 2200 2851 3074 3057 2882 2773
0 0 0 0 0 0 0 0 0 0 0 0 0 0 0 0 0 0 0 0 0 0 0 0 0 0 4 10 7 7 4 0 0 6 0 6 418 1032 1322 1343 1318 1259 1628 2059 2296 2085 2019 1970 1982 2258 2587 2502 2560 2547 2734 2871 2907 2752 2750 2906 2776 2466 2444 2306 2153 2030 2017 2236 2362 2285 2167 2034 1957 1344 1797 1953 1741 1914 1766 1522 2362 3244 3246 3103 2463 2438
0 0 0 0 0 0 0 0 0 0 0 0 0 0 0 0 0 0 0 0 0 1 0 0 0 0 1 0 0 4 5 0 0 20 21 1 16 682 864 1100 941 808 1304 1246 2548 2253 2042 2060 2148 2427 2594 2548 2582 2482 2633 2904 2901 2961 2978 3056 2809 2609 2542 2398 2512 2320 2497 2336 2290 2297 2273 2011 2017 1971 1872 2176 1915 1689 2000 1640 1591 2949 2829 2704 2494 2284
0 0 0 0 0 0 0 0 0 0 0 0 0 0 0 0 0 0 0 0 1 0 0 0 0 0 0 5 4 0 0 9 4 0 32 64 27 397 723 688 613 1041 1401 2017 2181 2453 2176 2135 2156 2407 2789 2696 2402 2740 2803 2813 2928 3000 3008 3107 3016 2870 2729 2436 2639 2543 2620 2748 2621 2409 2166 2203 2266 2281 2335 2517 2248 2003 1991 2094 1478 1845 2757 2739 2434 2230
0 0 0 0 0 0 0 0 0 0 0 0 0 0 0 0 0 0 0 0 0 0 0 0 0 0 0 1 2 3 0 4 6 0 42 34 188 295 938 559 1029 1394 402 1086 1718 2554 2250 2282 2308 2518 2684 2766 2712 2694 2628 2804 3026 3227 3337 3254 3251 3051 2825 2523 2750 2844 2932 2808 2638 2567 2410 2390 2498 2288 2439 2594 2780 2262 2138 2079 1572 1524 2331 2939 2770 2464
0 0 0 0 0 0 0 0 0 0 0 0 0 0 0 0 0 0 0 0 0 0 0 0 0 0 0 0 0 0 0 0 1 38 294 193 182 371 798 639 630 1055 1048 2169 1890 2623 2378 2410 2417 2542 2904 2868 2580 2528 2659 2854 2918 3174 3360 3408 3383 3167 3116 2860 2723 2970 2861 2739 2768 2657 2579 2710 2601 2441 2307 2532 2653 2648 2438 2205 2039 1834 2069 2960 3254 2853
0 0 0 0 0 0 0 0 0 0 0 0 0 0 0 0 0 0 0 0 0 0 0 0 0 0 0 0 0 0 0 0 0 61 128 387 416 530 296 984 1279 958 1465 1726 2466 2707 2625 2508 2492 2632 2698 2864 2522 2390 2644 2728 2718 2931 3134 3414 3493 3347 3179 3182 3185 3235 3127 2872 2643 2662 2953 2927 2758 2207 2208 2244 2648 2833 2822 2711 2780 2612 2559 2736 3534 3517
0 0 0 0 0 0 0 0 0 0 0 0 0 0 0 0 0 0 0 0 0 0 0 0 0 0 0 0 0 0 0 0 0 15 11 284 416 590 531 878 1227 1678 2010 2354 2813 2861 2781 2623 2320 2766 3082 2938 2484 2541 2802 2657 2802 3056 3266 3475 3433 3488 3359 3321 3376 3328 3038 2888 2815 2803 2916 3248 2963 2494 2364 2604 2784 3320 3107 3017 3092 3188 3057 2997 2971 3297
0 0 0 0 0 0 0 0 0 0 0 0 0 0 0 0 0 0 0 0 0 0 0 0 0 0 0 0 0 0 0 0 0 0 122 466 467 428 526 258 930 1476 1979 2130 2540 2855 2950 2930 2898 2873 3090 3070 2819 2676 2720 2876 2859 3084 3246 3364 3586 3796 3634 3635 3554 3613 3339 3006 2765 2983 3294 3416 3136 2830 2538 2818 2864 3430 3487 3320 3317 3378 3270 3371 3120 3301
0 0 0 0 0 0 0 0 0 0 0 0 0 0 0 0 0 0 0 0 0 0 0 0 0 0 0 0 0 0 0 0 0 0 0 39 445 615 720 305 695 1167 1816 2090 2354 2714 2920 2985 3073 2988 3196 3383 3101 2722 2832 2932 2926 3092 3402 3603 3805 4004 3802 3751 3732 3575 3234 2968 2886 3122 3469 3515 3387 3257 3019 2899 2918 3337 3840 3783 3607 3568 3473 3561 3454 3228
0 0 0 0 0 0 0 0 0 0 0 0 0 0 0 0 0 0 0 0 0 0 0 0 0 0 0 0 0 0 0 0 0 0 0 0 1 294 485 504 243 825 1319 2000 2128 2464 3008 3156 3080 3201 3306 3408 3276 2932 2983 2963 3069 3350 3550 3967 4003 4020 3936 3675 3635 3658 3429 3196 3012 3190 3434 3626 3641 3470 3230 2938 2874 2992 3801 4031 3902 3499 3173 3498 3434 3066
0 0 0 0 0 0 0 0 0 0 0 0 0 0 0 0 0 0 0 0 0 0 0 0 0 0 0 0 0 0 0 0 0 0 0 0 0 52 621 723 279 301 878 1767 2264 2362 2671 3128 3257 3189 3323 3488 3406 3049 3142 3066 3166 3439 3708 4183 4262 4282 3984 3810 3672 3536 3376 3244 3208 3551 3446 3670 3620 3660 3544 3327 2886 2845 3224 3723 3774 3733 2950 2865 3102 3008
0 0 0 0 0 0 0 0 0 0 0 0 0 0 0 0 0 0 0 0 0 0 0 0 0 0 0 0 0 0 0 0 0 0 0 0 0 7 520 480 317 210 427 1074 1718 2419 2543 3129 3359 3315 3365 3527 3638 3377 3117 3226 3234 3550 4080 4460 4380 4246 4141 3938 3863 3610 3428 3372 3579 3429 3461 3615 3715 3739 3650 3557 3450 3164 3029 3372 3713 3747 3515 2889 2817 3249
0 0 0 0 0 0 0 0 0 0 0 0 0 0 0 0 0 0 0 0 0 0 0 0 0 0 0 0 0 0 0 0 0 0 0 0 0 0 333 632 320 192 274 494 1280 2398 2584 3003 3402 3454 3540 3548 3479 3512 3340 3589 3593 3842 4074 4466 4492 4518 4418 4271 4112 3928 3936 3728 3342 3351 3627 3588 3581 3832 3753 3392 3406 3146 3016 3224 3338 3413 3628 3211 2832 2941
0 0 0 0 0 0 0 0 0 0 0 0 0 0 0 0 0 0 0 0 0 0 0 0 0 0 0 0 0 0 0 0 0 0 0 0 0 0 2 521 369 111 149 707 1768 2488 2783 2926 3374 3491 3434 3474 3729 3748 3616 3766 3721 3894 4059 4520 4707 4719 4685 4507 4388 4172 3886 3538 3373 3451 3629 3902 3914 3722 3672 3517 3459 3479 3248 3152 3261 3372 3479 3494 3018 2643
0 0 0 0 0 0 0 0 0 0 0 0 0 0 0 0 0 0 0 0 0 0 0 0 0 0 0 0 0 0 0 0 0 0 0 0 0 0 0 0 480 421 156 540 1410 2323 2745 2841 3273 3544 3432 3508 3788 4012 3969 3968 3940 3955 4194 4484 4550 4556 4709 4731 4263 3894 3596 3527 3551 3541 3666 3927 3962 3905 3823 3668 3434 3729 3578 3108 3139 3310 3187 3306 3447 3260
0 0 0 0 0 0 0 0 0 0 0 0 0 0 0 0 0 0 0 0 0 0 0 0 0 0 0 0 0 0 0 0 0 0 0 0 0 0 0 0 56 283 200 274 969 1976 2621 2781 2966 3403 3352 3406 3588 3955 3990 3982 3990 3932 4139 4350 4432 4448 4713 4551 4190 3936 3928 3528 3448 3473 3715 3938 4030 4040 3978 3538 3709 3657 3722 3480 3089 3335 2984 3068 3268 3391
0 0 0 0 0 0 0 0 0 0 0 0 0 0 0 0 0 0 0 0 0 0 2 8 0 0 0 0 0 0 0 0 0 0 0 0 0 0 0 0 23 341 447 249 478 1592 2422 2734 2766 3078 3365 3288 3447 3755 3858 3804 3836 3774 3977 4134 4268 4581 4488 4382 4274 4171 4066 3811 3855 3750 3953 4076 4167 4148 3653 3633 3753 3785 4018 3930 3467 3272 3232 3173 3192 3226
0 0 0 0 0 0 0 0 0 0 0 0 0 0 0 0 0 0 0 0 0 0 0 0 0 0 0 0 0 0 0 0 0 0 0 0 0 0 0 0 15 283 533 460 405 1123 2067 2764 2839 2871 3198 3149 3200 3512 3672 3788 3842 3732 3756 3886 4033 4145 4235 4071 4106 4139 4154 4178 3929 3732 3971 3885 4002 4105 3824 3805 3550 4019 4030 4054 3893 3586 3592 3404 3519 3563
0 0 0 0 0 0 0 0 0 0 0 0 0 0 0 0 0 0 0 0 0 0 0 0 0 0 0 0 0 0 0 0 0 0 0 0 0 0 0 0 0 104 294 234 360 574 1135 2464 2761 2778 3095 3197 3062 3368 3607 3688 3709 3724 3701 3681 3799 3770 4027 3908 3921 3983 4503 4364 4081 3990 4021 3902 4084 4357 4051 3816 3560 3816 3790 4005 4140 3920 3674 3496 3477 3867
0 0 0 0 0 0 0 0 0 0 0 0 0 0 0 0 0 0 0 0 0 0 0 0 0 0 0 0 0 0 0 0 0 0 0 0 0 0 0 0 0 33 127 181 291 238 836 1984 2743 3094 3213 3425 3279 3404 3435 3445 3642 3734 3624 3520 3623 3537 3732 3720 3752 4009 4532 4414 4168 4068 3943 4032 4060 3870 3754 3727 3376 3467 3667 3585 3832 4001 3824 3641 3210 3466
0 0 0 0 0 0 0 0 0 0 0 0 0 0 0 0 0 0 0 0 0 0 0 0 0 0 0 0 0 0 0 0 0 0 0 0 0 0 0 0 94 558 823 925 1010 876 1178 1960 2945 3528 3404 4149 4012 3037 3456 3529 3553 3483 3525 3536 3444 3379 3523 3596 3605 3984 4403 4388 3989 3953 4265 4133 4037 3846 3743 3426 3385 3474 3467 3306 3214 3535 3783 3642 3226 2847
0 0 0 0 0 0 0 0 0 0 0 0 0 0 0 0 0 0 0 0 0 14 0 0 0 4 0 0 0 0 0 0 0 0 0 0 0 0 19 150 1015 1316 1806 1344 1094 1233 1569 2933 3718 4206 4006 4331 3501 3098 3633 3882 3351 3268 3388 3396 3318 3306 3362 3631 3417 3592 4142 4203 3817 4028 4270 4243 4164 3781 3908 3897 3495 3399 3169 2843 2652 2960 3622 3743 3433 3079
0 0 0 0 0 0 18 940 0 0 0 0 0 0 0 0 0 0 0 0 0 0 0 2 10 52 0 0 0 0 0 0 0 0 0 0 0 10 350 325 288 1141 2272 1672 1581 1426 1895 2660 3116 3504 3767 3309 3068 3036 3105 3136 3289 3237 3481 3363 3178 3145 3253 3597 3510 3784 3976 4106 3776 4148 4472 4322 4321 3886 3800 3964 3526 3089 2922 2586 2394 2371 2953 3629 3617 3469
0 0 0 0 0 46 0 0 0 0 0 0 0 0 0 0 0 0 0 0 0 0 0 0 17 5 4 0 0 0 0 0 0 0 0 0 3 123 164 553 250 1153 2177 2182 2114 1970 1923 2106 2234 3114 3642 3151 2935 2966 2939 3010 3007 3290 3400 3284 3166 3020 3072 3259 3562 3757 3992 4212 4102 4377 4570 4654 4468 4125 3938 4041 4308 3726 3069 2864 2570 2714 2650 3349 3838 3599
0 0 0 0 0 0 5 0 0 0 0 0 0 0 0 0 0 0 0 0 0 0 0 0 28 4 34 0 0 0 0 0 0 0 0 0 0 0 12 0 15 286 1586 1721 2677 3098 2821 2628 2980 3038 3442 3208 2817 2877 2828 2831 2956 3346 3278 3160 3304 2928 2984 3278 3485 3642 3844 4302 4525 4714 4846 4940 4750 4609 4236 3902 4430 4290 3750 3306 3397 3360 3106 3455 3804 3828
0 0 0 0 0 0 0 0 0 0 0 0 0 0 0 0 0 0 0 0 0 0 0 34 37 0 0 0 0 0 0 0 0 0 0 0 0 0 0 0 0 15 0 492 1522 2656 3444 3137 3568 3605 3743 3834 3043 3071 2800 2813 3180 3009 3144 3130 3038 3155 2893 3246 3590 3937 3852 4286 4737 4901 5084 5312 5047 4867 4882 4529 4423 4794 4555 4005 3735 3476 3335 3426 3544 4023
0 0 0 0 0 0 0 0 0 0 0 0 0 0 0 0 0 0 0 0 0 0 0 0 40 24 0 0 0 0 0 0 0 0 0 0 0 0 0 0 0 0 11 153 1983 2138 2596 3127 3880 4252 4146 4279 3844 3304 3167 3126 2962 2911 2826 2922 2916 3086 2855 2864 4202 4322 4266 4558 4867 5035 5168 5410 5288 5060 5033 5051 4782 4844 4809 4610 4179 4326 4499 4221 3987 4323
0 0 0 0 0 0 0 0 0 0 0 0 0 0 0 0 0 0 0 0 0 0 0 0 0 0 24 0 0 0 0 0 0 0 0 0 0 0 0 0 0 0 0 0 721 1476 3354 2978 3212 4379 4450 4123 4060 3725 3330 3639 3094 2993 2700 2907 2964 2812 2673 2639 3146 3711 4514 4290 4718 5128 5305 5422 5497 5385 5162 5076 4920 4929 5033 4914 4554 4456 4482 4223 4093 4629
0 0 0 0 0 0 0 0 0 0 0 0 0 0 0 0 0 0 0 0 0 0 0 0 0 0 0 0 0 0 0 0 0 0 0 0 0 0 0 0 0 0 0 0 0 0 0 34 2059 3228 2454 2370 3173 3452 3206 3182 2898 3201 3143 3141 3281 3183 2938 3059 2930 3692 4411 4330 4729 5140 5307 5475 5538 5530 5354 5264 5078 5041 5081 5146 4884 4570 4557 4438 4457 4413
0 0 0 0 0 0 0 0 0 0 0 0 0 0 0 0 0 0 0 0 0 0 0 0 0 0 0 0 0 0 0 0 0 0 0 0 0 0 0 0 0 0 0 0 0 0 0 58 925 620 2302 2884 2257 1926 2929 3056 2670 2890 3059 3178 3612 3587 3736 3776 3482 4117 4174 4486 4697 5112 5470 5642 5637 5655 5542 5459 5230 5100 5093 5209 5171 4809 4583 4579 4724 4561
0 0 0 0 0 0 0 0 0 0 0 0 0 0 0 0 0 0 0 0 0 0 0 0 0 0 0 0 0 0 0 0 0 0 0 0 0 0 0 0 11 47 26 0 0 0 298 726 2589 3174 2316 1537 1150 1728 2201 2914 2873 2875 3074 3304 3364 3822 4297 3816 3995 3951 4202 4453 4736 5171 5570 5688 5728 5791 5679 5577 5391 5189 5186 5273 5328 5055 4721 4513 4579 4702
0 0 9 0 0 0 5 0 0 0 0 0 0 0 0 0 0 0 0 0 0 0 0 0 0 0 0 0 0 0 0 0 0 0 0 0 0 0 0 0 0 0 0 0 41 4359 4763 3954 4132 3360 3552 3752 2763 1932 1862 2105 2759 2697 2987 3290 3208 3464 3934 4257 4232 4042 4367 4644 4768 5176 5515 5632 5716 5718 5698 5565 5455 5320 5178 5267 5432 5190 4964 4603 4400 4567
0 8 2 2 0 0 0 4 0 2 0 0 0 0 0 0 0 0 0 0 0 0 0 0 0 0 0 0 0 0 0 0 0 0 0 0 0 0 0 0 0 0 0 78 1276 2851 5299 5101 4193 3540 3678 3834 3402 2162 1895 1877 2260 2813 2756 3206 3231 3856 4009 4046 4186 3988 4124 4712 4928 5013 5355 5345 5434 5494 5570 5650 5488 5323 5256 5328 5363 5208 5104 4834 4446 4374
0 0 2 0 7 0 0 2 4 0 0 0 0 20 11 5 0 0 0 0 0 0 0 0 0 0 0 0 0 0 166 49 5 0 0 0 0 0 0 0 0 0 72 996 2936 3282 3573 3954 4633 4606 4482 4324 4348 4403 3633 2576 2446 3302 3662 3596 3730 3718 3877 3703 3776 3878 4338 4912 5087 5084 5159 5187 5184 5281 5384 5522 5534 5354 5227 5144 5002 5200 5174 4844 4489 4206
0 0 1 2 2 2 6 10 5 0 0 10 8 2 18 9 0 1 0 0 75 48 94 12 0 62 50 26 184 908 488 76 1 0 120 727 1394 2439 3888 840 348 1949 3374 3537 3374 3054 3368 4940 4951 4540 3692 4088 4805 4799 4202 3532 3046 3160 3525 3504 3505 3588 3616 3766 3748 3904 4176 4857 5047 4969 4952 4971 4965 5066 5220 5404 5445 5291 5113 4885 4942 5038 5036 4906 4718 4481
0 0 0 0 6 8 1 0 1 2 9 8 40 8 6 5 1 2 0 0 680 176 141 226 125 362 974 1658 1563 940 262 0 0 0 1496 1502 1678 2264 3391 3148 3727 3062 3085 2971 3672 3864 3798 4747 4364 5030 4839 4367 4388 4097 3842 3327 3137 3312 3464 3352 3428 3522 3683 3883 3875 4000 4120 4372 4679 4823 4769 4761 5054 5152 5050 5080 5150 5298 5130 4964 4946 4987 4889 4789 4546 4556
0 0 0 0 0 0 1 2 0 6 3 0 18 8 4 7 1 8 0 279 258 261 398 36 299 610 1002 1166 1193 550 477 293 904 1771 1466 1384 1580 2944 3462 3011 3063 2688 2848 2780 3365 3122 3562 4465 4724 4749 5046 5165 5196 5013 4498 3422 3176 3320 3456 3474 3818 4039 4045 4175 4052 4201 4441 4456 4371 4509 4662 4685 4882 4976 4788 4838 4964 4867 4734 4677 4728 4634 4696 4641 4473 4500
0 0 0 0 0 0 0 0 0 2 1 0 0 6 17 0 3 8 210 105 96 19 5 110 427 666 523 1066 887 996 999 940 1055 1014 1026 1536 2598 2840 3038 2696 2778 2978 2969 3762 3431 3203 4040 4316 4492 4728 4368 4078 4233 3596 3588 3969 3586 3566 3552 3640 3947 4136 3952 4122 4237 4182 4290 4527 4553 4392 4469 4624 4776 4902 4648 4664 4809 5022 4932 4779 4615 4560 4673 4469 4510 4684
2 0 0 0 0 0 0 0 0 0 0 0 37 10 2 3 167 38 6 69 4 1 1 28 174 989 671 462 542 724 832 850 1070 1170 1223 1514 1940 2370 2673 2835 2676 2596 3056 2758 3585 3646 3266 4305 4113 4072 4097 4367 4848 3819 3826 3822 4032 4072 4114 4356 4396 4096 3870 3818 3931 4239 4352 4505 4462 4362 4420 4642 4694 4767 4724 4694 4861 5146 5154 5041 4848 4766 4685 4651 4618 4742
105 63 2 0 0 0 0 0 2 38 111 16 2 28 222 86 36 36 3 0 0 0 33 1 176 790 778 536 772 639 848 928 1184 1342 1642 1895 1884 1860 1913 2645 2874 2770 3042 2840 2772 3174 3380 3775 3885 3888 3994 4096 4819 5070 3842 3928 3964 4250 4509 4618 4700 4144 3816 3870 4100 4473 4559 4552 4529 4376 4278 4380 4468 4631 4660 4743 4833 4997 5251 5314 5095 4870 4742 4830 4846 4613
0 26 107 40 80 18 0 0 146 40 43 9 25 22 13 28 0 4 4 0 2 7 91 70 346 367 331 820 804 1054 901 1092 1209 1293 1390 1435 1392 1594 2049 2531 2528 2632 2854 2922 2718 2586 3308 3351 3519 3577 3627 3549 3887 4457 5030 5204 5240 5010 5051 5052 4973 5070 4896 4902 5032 4974 4824 4798 4720 4524 4261 4260 4493 4639 4669 4810 4906 5036 5138 5162 4969 4790 4721 4788 4349 4172
26 0 17 15 4 0 0 0 8 18 12 19 2 0 0 0 0 0 13 23 69 69 47 68 171 485 397 550 754 826 1042 1020 1186 1206 1284 1336 1670 1861 2018 2051 2003 2224 2550 2642 2634 2648 2816 2894 2982 3162 3278 3228 3294 3260 3888 3958 3810 4029 4032 3909 4463 4754 4906 4857 4909 5048 5029 4895 4794 4612 4374 4300 4323 4702 4920 4822 4644 4683 4742 4641 4577 4564 4673 4131 4039 4210
0 0 0 2 4 0 0 2 2 8 11 0 0 0 0 0 0 0 5 75 68 78 53 39 141 53 237 378 652 833 864 1052 1062 1216 1363 1562 1555 1822 1833 1696 2375 2441 2688 2643 2480 2366 2590 2678 2576 2819 2962 2983 3045 2974 2817 3208 3342 3592 3582 4200 4050 4397 4890 5116 5283 4734 4696 4738 4619 4649 4494 4464 4299 4358 4558 4554 4374 4230 3742 3982 3916 3715 4282 4039 4088 4029
4 3 0 0 0 0 0 6 15 7 0 0 0 0 0 0 0 6 22 15 19 35 59 65 55 68 47 109 380 507 656 792 1104 1252 1437 1253 1341 1608 1681 1770 2026 2098 2246 2146 2386 2510 2780 2607 2704 2611 2634 2585 2292 2637 2854 2973 3110 3228 3123 3314 3714 4398 4798 4820 4964 5040 5108 4802 4720 4586 4686 4488 4045 4231 4086 4146 3478 3609 3397 3841 3950 3953 4406 4156 4012 4180
27 14 0 3 0 1 0 0 0 0 0 0 0 0 0 0 14 0 3 0 0 3 0 1 21 46 19 20 134 301 543 850 991 1120 1246 1270 1313 1462 1583 1686 1929 2034 2074 2180 2267 2399 2695 2557 2589 2455 2258 1916 2211 2312 2442 2393 2509 2729 2988 3084 3313 4225 4708 4772 4820 4921 5010 5080 5089 5016 4962 4458 4170 4124 3616 3327 3629 4522 4402 4341 5009 6239 4371 3727 3604 3649
0 1 0 3 6 4 6 5 0 0 0 0 0 0 28 28 1 0 0 0 0 0 0 0 0 20 40 26 58 136 367 494 669 1050 1268 1358 1435 1581 1580 1594 1691 1746 1808 1910 1876 2114 1900 2155 2225 2271 2171 2103 2054 2020 2023 1888 2127 2210 2380 2566 2889 3161 3312 3492 3484 3484 3957 4214 4355 4231 4162 4224 4302 4562 4622 4118 4106 3800 3508 3594 3672 3639 3623 3616 3606 3537
0 5 14 20 11 3 6 14 10 8 6 9 8 0 0 0 0 0 0 0 0 0 0 0 0 2 55 117 90 91 324 468 691 1150 1401 1396 1602 1684 1834 1818 1836 1721 1769 1781 1990 1986 2001 1881 1858 1855 1906 1907 1924 1822 1843 1768 1660 1814 1906 1996 2431 2340 2872 2901 2722 2644 3028 2714 3482 3680 3422 3084 3555 3482 3960 3486 3886 3900 3744 3306 3170 3150 3191 3170 3195 3235
Wind_Speed
nan nan nan nan nan nan nan nan nan nan nan nan nan nan nan nan nan nan nan nan nan nan nan nan nan nan nan nan nan nan nan nan nan nan 12 14 12 11 5 8 6 3 2 4 7 5 4 4 5 5 5 5 4 5 5 4 4 5 6 6 4 5 4 5 5 5 4 5 6 5 3 2 2 3 4 4 5 5 5 4 3 3 4 5 4 5
nan nan nan nan nan nan nan nan nan nan nan nan nan nan nan nan nan nan nan nan nan nan nan nan nan nan nan nan nan nan nan nan nan nan 12 13 12 10 7 6 9 7 5 6 8 5 5 4 5 5 5 5 5 4 5 4 4 5 5 6 6 7 5 6 5 6 6 6 5 4 3 3 3 3 4 5 5 5 5 4 3 3 4 4 4 4
nan nan nan nan nan nan nan nan nan nan nan nan nan nan nan nan nan nan nan nan nan nan nan nan nan nan nan nan nan nan nan nan nan nan nan 15 11 11 7 10 13 4 3 9 9 7 6 6 6 5 5 4 5 5 5 5 4 5 6 7 8 8 7 7 6 7 6 6 5 3 4 4 5 4 5 6 5 5 4 3 3 3 3 3 4 5
nan nan nan nan nan nan nan nan nan nan nan nan nan nan nan nan nan nan nan nan nan nan nan nan nan nan nan nan nan nan nan nan nan nan nan 15 15 11 10 11 13 7 7 6 8 8 7 7 6 5 6 5 5 6 6 6 4 6 7 7 7 8 8 8 7 7 5 4 4 4 6 6 8 6 6 6 7 6 4 2 1 2 2 4 4 5
nan nan nan nan nan nan nan nan nan nan nan nan nan nan nan nan nan nan nan nan nan nan nan nan nan nan nan nan nan nan nan nan nan nan nan nan 19 15 13 11 11 5 4 3 5 6 7 7 6 4 6 5 4 4 5 5 5 8 5 7 8 9 9 10 8 6 6 5 5 6 7 7 8 10 8 7 6 4 4 4 1 2 3 4 4 5
nan nan nan nan nan nan nan nan nan nan nan nan nan nan nan nan nan nan nan nan nan nan nan nan nan nan nan nan nan nan nan nan nan nan nan nan nan 23 20 14 11 9 5 0 3 6 7 7 7 5 5 4 4 4 6 6 5 7 8 8 9 11 10 9 7 5 7 7 7 7 8 8 9 10 8 6 4 4 3 4 2 1 2 3 4 4
nan nan nan nan nan nan nan nan nan nan nan nan nan nan nan nan nan nan nan nan nan nan nan nan nan nan nan nan nan nan nan nan nan nan nan nan nan 16 18 18 16 12 10 6 4 3 5 6 7 6 4 3 4 6 7 7 7 7 9 9 9 11 11 9 8 4 7 7 8 7 8 9 9 8 8 7 6 6 5 5 3 2 1 2 4 5
nan nan nan nan nan nan nan nan nan nan nan nan nan nan nan nan nan nan nan nan nan nan nan nan nan nan nan nan nan nan nan nan nan nan nan nan 17 12 17 17 13 12 12 9 5 7 6 6 6 5 4 4 6 8 8 7 8 7 8 9 9 11 10 10 9 5 7 9 9 9 9 10 8 7 8 7 8 7 7 5 4 4 3 3 3 4
nan nan nan nan nan nan nan nan nan nan nan nan nan nan nan nan nan nan nan nan nan nan nan nan nan nan nan nan nan nan nan nan nan nan 19 20 18 13 14 14 15 11 10 13 11 11 9 7 6 6 5 5 6 8 7 7 8 8 9 9 9 9 10 9 6 7 7 10 10 10 10 9 8 8 9 9 9 8 8 6 6 5 4 3 3 3
nan nan nan nan nan nan nan nan nan nan nan nan nan nan nan nan nan nan nan nan nan nan nan nan nan nan nan nan nan nan nan nan nan nan 16 23 20 19 13 8 14 14 10 12 9 9 10 9 7 7 7 8 5 6 8 9 10 10 10 9 9 8 10 9 7 8 7 8 11 10 8 6 8 9 10 9 9 8 8 7 7 6 5 4 3 3
nan nan nan nan nan nan nan nan nan nan nan nan nan nan nan nan nan nan nan nan nan nan nan nan nan nan nan nan nan nan nan nan nan nan nan 22 20 21 14 8 12 13 9 9 9 8 9 9 8 8 7 7 6 8 9 9 10 11 10 9 9 9 10 9 8 8 8 9 9 9 7 5 6 7 9 9 9 9 8 8 7 7 6 5 5 3
nan nan nan nan nan nan nan nan nan nan nan nan nan nan nan nan nan nan nan nan nan nan nan nan nan nan nan nan nan nan nan nan nan nan 24 19 19 21 15 9 11 13 12 9 10 9 10 11 9 7 6 7 7 8 8 9 10 11 11 11 10 9 9 9 9 10 9 9 9 9 7 6 7 8 10 8 8 8 7 7 8 8 7 6 5 5
nan nan nan nan nan nan nan nan nan nan nan nan nan nan nan nan nan nan nan nan nan nan nan nan nan nan nan nan nan nan nan nan nan nan nan nan 20 21 15 8 13 15 14 11 11 12 12 11 8 7 8 7 7 7 9 10 10 11 11 11 12 10 9 10 10 10 10 9 9 9 7 7 8 8 9 9 9 9 8 8 8 8 8 8 7 6
nan nan nan nan nan nan nan nan nan nan nan nan nan nan nan nan nan nan nan nan nan nan nan nan nan nan nan nan nan nan nan nan nan nan nan nan nan 25 16 13 16 17 16 14 13 12 13 11 8 7 8 8 7 8 9 9 9 10 10 11 11 11 10 10 10 11 10 9 9 9 8 8 9 8 9 10 9 9 9 9 8 7 7 7 7 6
nan nan nan nan nan nan nan nan nan nan nan nan nan nan nan nan nan nan nan nan nan nan nan nan nan nan nan nan nan nan nan nan nan nan nan nan nan nan 24 22 21 17 15 17 14 11 12 11 11 9 8 8 8 9 11 10 9 11 10 11 11 12 11 11 10 11 10 10 10 10 9 10 9 9 9 10 10 10 9 9 9 8 7 7 7 7
nan nan nan nan nan nan nan nan nan nan nan nan nan nan nan nan nan nan nan nan nan nan nan nan nan nan nan nan nan nan nan nan nan nan nan nan nan nan 31 24 21 16 16 18 11 9 11 12 12 12 10 8 9 10 11 11 11 11 12 13 13 13 13 12 12 12 11 11 12 11 11 10 9 9 9 9 10 10 10 10 10 10 9 8 8 9
nan nan nan nan nan nan nan nan nan nan nan nan nan nan nan nan nan nan nan nan nan nan nan nan nan nan nan nan nan nan nan nan nan nan nan nan nan nan 35 25 21 17 15 15 11 10 12 14 13 13 12 10 10 11 10 11 12 13 14 15 14 14 14 14 14 14 14 14 14 13 12 11 10 9 8 7 7 8 10 11 10 10 10 9 9 10
nan nan nan nan nan nan nan nan nan nan nan nan nan nan nan nan nan nan nan nan nan nan nan nan nan nan nan nan nan nan nan nan nan nan nan nan nan nan nan 29 24 14 11 13 13 13 14 14 14 13 13 12 11 11 10 11 13 15 16 17 17 16 15 15 16 15 15 15 14 14 13 12 11 10 9 9 9 9 10 11 11 11 11 10 10 10
nan nan nan nan nan nan nan nan nan nan nan nan nan nan nan nan nan nan nan nan nan nan nan nan nan nan nan nan nan nan nan nan nan nan nan nan nan nan nan nan 24 16 13 14 14 17 16 14 13 13 13 12 13 13 12 13 15 16 16 16 17 17 17 18 17 16 16 16 15 15 14 13 13 11 11 11 11 11 10 11 12 11 11 11 11 11
nan nan nan nan nan nan nan nan nan nan nan nan nan nan nan nan nan nan nan nan nan nan nan nan nan nan nan nan nan nan nan nan nan nan nan nan nan nan nan nan nan 20 17 16 17 18 16 13 12 13 12 12 12 13 14 16 16 15 15 16 15 16 17 18 17 17 16 15 14 14 14 13 13 13 12 12 13 12 12 12 12 12 12 12 12 11
nan nan nan nan nan nan nan nan nan nan nan nan nan nan nan nan nan nan nan nan nan nan nan nan nan nan nan nan nan nan nan nan nan nan nan nan nan nan nan nan nan 22 20 19 19 19 15 13 12 12 13 12 13 14 13 14 16 17 17 16 16 17 17 17 16 17 15 15 14 14 15 15 15 15 13 13 13 13 13 13 13 13 13 14 13 13
nan nan nan nan nan nan nan nan nan nan nan nan nan nan nan nan nan nan nan nan nan nan nan nan nan nan nan nan nan nan nan nan nan nan nan nan nan nan nan nan nan 23 21 21 20 18 16 15 14 16 16 13 12 12 12 12 15 17 18 17 17 17 16 16 15 15 16 15 15 15 15 16 16 16 16 15 15 14 14 14 15 15 16 15 16 14
nan nan nan nan nan nan nan nan nan nan nan nan nan nan nan nan nan nan nan nan nan nan nan nan nan nan nan nan nan nan nan nan nan nan nan nan nan nan nan nan nan 23 21 21 20 21 20 18 18 18 17 13 10 10 10 10 12 14 16 18 18 17 17 17 17 17 17 17 16 16 17 17 17 18 18 17 16 15 15 15 15 16 16 16 16 16
nan nan nan nan nan nan nan nan nan nan nan nan nan nan nan nan nan nan nan nan nan nan nan nan nan nan nan nan nan nan nan nan nan nan nan nan nan nan nan nan nan nan 28 26 25 25 25 24 21 20 18 15 13 11 9 10 10 12 13 15 17 18 19 18 18 19 20 19 18 19 19 18 18 19 18 17 15 15 15 15 16 16 16 16 15 16
nan nan nan nan nan nan nan nan nan nan nan nan nan nan nan nan nan nan nan nan nan nan nan nan nan nan nan nan nan nan nan nan nan nan nan nan nan nan nan nan nan 43 38 33 32 31 29 26 24 22 19 19 17 13 12 11 11 11 12 13 15 16 19 20 20 21 21 22 22 21 20 20 20 19 19 17 15 16 16 16 16 17 17 17 16 15
nan nan nan nan nan nan nan nan nan nan nan nan nan nan nan nan nan nan nan nan nan nan nan nan nan nan nan nan nan nan nan nan nan nan nan nan nan nan nan 51 47 39 36 33 31 30 27 28 27 24 22 22 20 17 15 14 12 11 11 11 13 16 19 21 21 22 22 22 23 22 21 21 21 20 19 17 15 16 17 17 17 17 17 16 16 16
nan nan nan nan nan nan nan 52 nan nan nan nan nan nan nan nan nan nan nan nan nan nan nan nan nan nan nan nan nan nan nan nan nan nan nan nan nan nan 53 45 40 39 37 34 33 33 32 31 28 26 25 23 22 21 18 16 14 11 11 11 13 16 19 21 22 22 23 23 23 22 21 21 21 19 17 15 14 15 16 16 16 16 15 16 15 16
nan nan nan nan nan nan nan nan nan nan nan nan nan nan nan nan nan nan nan nan nan nan nan nan nan nan nan nan nan nan nan nan nan nan nan nan nan 49 49 41 39 39 39 39 38 37 34 34 32 30 28 25 23 22 21 19 17 14 13 13 15 16 18 20 22 22 22 23 22 21 20 20 20 18 16 15 15 15 15 15 14 14 13 14 15 14
nan nan nan nan nan nan nan nan nan nan nan nan nan nan nan nan nan nan nan nan nan nan nan nan nan nan nan nan nan nan nan nan nan nan nan nan nan nan nan nan nan 41 42 41 40 38 37 36 34 32 30 27 24 23 22 22 20 19 17 16 17 16 17 19 20 20 21 22 21 19 18 18 19 18 16 15 15 14 13 12 13 12 12 11 12 11
nan nan nan nan nan nan nan nan nan nan nan nan nan nan nan nan nan nan nan nan nan nan nan nan nan nan nan nan nan nan nan nan nan nan nan nan nan nan nan nan nan nan nan 42 40 40 39 38 37 34 33 30 27 26 25 24 23 21 20 19 18 17 17 19 19 19 19 19 18 18 18 18 19 19 17 16 15 13 12 12 12 11 10 10 10 10
nan nan nan nan nan nan nan nan nan nan nan nan nan nan nan nan nan nan nan nan nan nan nan nan nan nan nan nan nan nan nan nan nan nan nan nan nan nan nan nan nan nan nan 43 42 42 43 41 39 37 34 33 31 29 28 27 26 25 22 21 19 19 18 18 18 19 18 17 17 18 18 19 19 20 18 16 15 14 13 12 11 9 8 8 8 8
nan nan nan nan nan nan nan nan nan nan nan nan nan nan nan nan nan nan nan nan nan nan nan nan nan nan nan nan nan nan nan nan nan nan nan nan nan nan nan nan nan nan nan nan 44 44 44 42 41 39 37 35 33 33 31 30 28 27 24 25 22 20 19 17 18 19 18 17 17 17 18 18 20 21 19 18 15 14 14 13 11 10 9 8 8 7
nan nan nan nan nan nan nan nan nan nan nan nan nan nan nan nan nan nan nan nan nan nan nan nan nan nan nan nan nan nan nan nan nan nan nan nan nan nan nan nan nan nan nan nan nan nan nan nan 40 40 39 39 37 36 33 31 30 29 28 27 25 22 19 18 17 18 18 18 17 17 18 20 21 21 20 18 17 16 16 15 13 11 10 9 9 9
nan nan nan nan nan nan nan nan nan nan nan nan nan nan nan nan nan nan nan nan nan nan nan nan nan nan nan nan nan nan nan nan nan nan nan nan nan nan nan nan nan nan nan nan nan nan nan nan 43 41 40 39 37 35 35 33 30 30 31 30 27 23 20 18 16 17 19 19 17 16 18 20 22 22 21 20 20 18 17 15 14 14 13 13 13 10
nan nan nan nan nan nan nan nan nan nan nan nan nan nan nan nan nan nan nan nan nan nan nan nan nan nan nan nan nan nan nan nan nan nan nan nan nan nan nan nan nan nan nan nan nan nan 40 42 44 42 39 35 34 36 35 34 31 32 33 31 26 25 23 19 17 17 19 20 19 17 17 19 21 23 22 21 21 20 18 17 16 15 15 14 14 13
nan nan nan nan nan nan nan nan nan nan nan nan nan nan nan nan nan nan nan nan nan nan nan nan nan nan nan nan nan nan nan nan nan nan nan nan nan nan nan nan nan nan nan nan nan 43 42 41 42 41 41 40 39 36 34 33 32 31 33 33 28 26 25 21 18 17 20 20 19 18 17 18 20 22 22 22 21 20 18 17 17 16 16 16 15 15
nan nan nan nan nan nan nan nan nan nan nan nan nan nan nan nan nan nan nan nan nan nan nan nan nan nan nan nan nan nan nan nan nan nan nan nan nan nan nan nan nan nan nan nan 36 36 39 37 35 34 34 34 34 34 34 35 34 32 34 34 30 28 27 23 19 18 19 18 17 16 16 17 18 20 21 21 20 18 17 17 17 17 19 18 18 18
nan nan nan nan nan nan nan nan nan nan nan nan nan nan nan nan nan nan nan nan nan nan nan nan nan nan nan nan nan nan 42 nan nan nan nan nan nan nan nan nan nan nan nan 34 33 31 29 29 29 29 28 27 28 30 34 34 34 34 34 35 35 32 28 23 20 19 19 16 16 15 15 15 16 18 19 19 17 17 17 17 18 19 21 20 20 19
nan nan nan nan nan nan nan nan nan nan nan nan nan nan nan nan nan nan nan nan nan nan nan nan nan nan nan nan 43 43 36 nan nan nan 38 42 45 48 52 37 37 42 40 36 32 29 30 30 29 27 24 21 21 23 27 29 31 32 32 34 36 34 28 23 21 20 18 17 17 16 15 15 15 15 17 17 17 18 18 19 19 20 22 22 22 21
nan nan nan nan nan nan nan nan nan nan nan nan nan nan nan nan nan nan nan nan 61 59 57 53 51 52 52 53 47 40 35 nan nan nan 47 43 43 44 44 45 44 42 39 36 34 33 31 29 27 26 23 21 21 21 22 23 25 26 29 33 35 32 26 23 21 19 18 18 19 19 18 17 17 17 18 18 19 20 19 20 20 21 22 23 24 25
nan nan nan nan nan nan nan nan nan nan nan nan nan nan nan nan nan nan nan 65 61 60 58 nan 57 59 57 53 50 44 41 39 41 46 43 42 39 42 42 44 43 42 39 36 37 34 29 29 30 30 28 28 27 24 22 21 20 21 24 28 31 30 26 24 22 21 20 20 20 21 22 21 20 20 20 20 20 20 20 21 21 23 23 24 25 26
nan nan nan nan nan nan nan nan nan nan nan nan nan nan nan nan nan nan 66 60 nan nan nan 59 61 59 59 57 54 51 49 46 43 42 42 41 42 40 40 41 43 42 41 41 36 33 32 32 33 31 29 27 25 23 22 22 21 21 23 25 28 29 27 25 24 24 23 22 22 23 24 24 23 22 21 21 22 23 23 24 25 25 25 25 27 28
nan nan nan nan nan nan nan nan nan nan nan nan nan nan nan nan 67 nan nan nan nan nan nan nan 62 61 59 58 56 54 49 46 46 45 44 41 38 38 40 42 42 41 40 38 37 38 35 35 34 34 31 31 33 30 27 25 24 23 23 24 27 30 29 29 29 28 27 26 25 26 27 28 26 25 24 25 26 26 26 27 28 28 28 28 29 30
69 nan nan nan nan nan nan nan nan nan 72 nan nan nan 76 nan nan nan nan nan nan nan nan nan 64 63 60 58 57 55 51 47 45 45 44 42 39 37 36 39 41 40 39 37 39 39 38 37 36 36 35 34 34 34 32 30 29 27 26 28 32 31 33 33 34 33 32 31 30 30 30 29 28 27 27 28 29 29 29 28 29 30 30 32 32 32
nan nan 68 nan nan nan nan nan 79 nan nan nan nan nan nan nan nan nan nan nan nan nan nan nan 64 62 61 60 57 55 51 49 48 47 45 44 43 40 37 37 40 42 41 40 42 41 40 41 39 38 38 36 36 37 37 37 36 35 33 33 32 35 37 37 37 37 36 37 36 34 31 29 28 28 29 31 32 32 32 32 32 31 32 33 32 33
nan nan nan nan nan nan nan nan nan nan nan nan nan nan nan nan nan nan nan nan nan nan nan nan 65 63 61 60 58 55 54 51 49 46 45 45 44 44 41 38 36 37 38 39 39 40 40 40 40 39 39 37 36 37 38 39 39 37 36 32 31 31 34 34 36 37 38 40 40 38 35 31 30 31 32 33 34 34 35 35 34 34 36 36 37 38
nan nan nan nan nan nan nan nan nan nan nan nan nan nan nan nan nan nan nan nan nan nan nan nan 67 nan 63 63 58 56 54 52 50 48 46 45 44 44 42 39 36 37 40 40 41 39 39 40 41 42 41 40 38 37 38 39 39 39 36 35 32 32 31 34 35 37 38 40 42 41 37 35 33 34 35 36 37 37 38 38 38 38 39 39 40 42
nan nan nan nan nan nan nan nan nan nan nan nan nan nan nan nan nan nan nan nan nan nan nan nan nan nan nan 62 62 58 55 53 51 49 47 46 44 43 42 39 37 37 37 39 40 38 40 40 42 41 42 41 39 39 40 41 41 40 38 37 37 37 35 35 35 36 37 39 41 42 40 39 39 38 40 40 40 41 42 42 41 40 43 43 43 43
nan nan nan nan nan nan nan nan nan nan nan nan nan nan nan nan nan nan nan nan nan nan nan nan nan nan nan nan 60 57 54 53 53 51 48 46 44 42 41 41 40 39 39 37 39 40 42 42 43 43 43 43 42 41 39 38 38 39 40 39 39 39 42 43 43 43 42 42 43 45 42 42 43 41 42 46 49 56 56 52 50 52 58 59 55 54
nan nan nan nan nan nan nan nan nan nan nan nan nan nan nan nan nan nan nan nan nan nan nan nan nan nan nan nan nan 56 53 51 50 48 48 47 46 43 42 41 39 38 38 39 39 39 42 43 43 44 44 43 43 42 41 41 41 41 41 41 41 42 43 43 44 43 43 43 44 44 46 47 49 50 50 49 53 57 57 58 60 57 55 57 55 60
nan nan nan nan nan nan nan nan nan nan nan nan nan nan nan nan nan nan nan nan nan nan nan nan nan nan nan 56 nan nan 53 52 50 49 47 48 50 50 46 42 41 41 40 39 39 40 41 42 43 43 43 44 44 45 44 43 44 43 43 43 43 43 45 45 45 45 46 46 46 46 46 46 48 50 51 51 51 52 55 58 58 60 64 63 60 61
Wind_Direction
nan nan nan nan nan nan nan nan nan nan nan nan nan nan nan nan nan nan nan nan nan nan nan nan nan nan nan nan nan nan nan nan nan nan 268 281 285 273 316 318 310 310 59 25 344 333 299 284 276 265 264 250 251 216 234 232 239 232 222 231 220 213 221 244 232 220 214 210 210 196 185 178 180 148 144 134 130 127 130 135 112 96 88 72 56 51
nan nan nan nan nan nan nan nan nan nan nan nan nan nan nan nan nan nan nan nan nan nan nan nan nan nan nan nan nan nan nan nan nan nan 264 269 281 293 311 288 286 292 73 15 337 335 303 258 294 266 247 267 283 229 240 230 239 234 234 235 225 209 217 217 228 227 211 208 202 194 177 169 178 167 154 150 145 141 151 150 131 107 90 65 51 46
nan nan nan nan nan nan nan nan nan nan nan nan nan nan nan nan nan nan nan nan nan nan nan nan nan nan nan nan nan nan nan nan nan nan nan 260 264 270 279 275 276 272 71 32 340 329 298 298 300 252 240 237 269 255 247 237 233 239 227 227 225 211 219 213 221 220 210 202 190 181 179 165 183 179 166 158 167 167 158 141 131 118 83 59 43 35
nan nan nan nan nan nan nan nan nan nan nan nan nan nan nan nan nan nan nan nan nan nan nan nan nan nan nan nan nan nan nan nan nan nan nan 261 267 253 263 270 275 335 350 23 342 329 310 298 288 257 239 230 239 241 248 249 248 220 216 227 227 215 215 212 216 210 204 187 175 172 180 177 168 190 186 174 179 171 150 131 112 100 64 36 30 20
nan nan nan nan nan nan nan nan nan nan nan nan nan nan nan nan nan nan nan nan nan nan nan nan nan nan nan nan nan nan nan nan nan nan nan nan 273 265 253 270 282 315 348 342 337 329 309 308 311 281 248 240 232 236 249 259 243 206 230 229 229 215 212 208 215 208 195 186 171 180 183 184 172 181 193 187 174 169 159 139 130 59 38 18 26 9
nan nan nan nan nan nan nan nan nan nan nan nan nan nan nan nan nan nan nan nan nan nan nan nan nan nan nan nan nan nan nan nan nan nan nan nan nan 285 289 297 309 316 321 341 20 338 321 308 289 275 260 257 236 230 230 237 239 223 220 224 226 215 211 210 213 205 187 183 183 189 194 192 190 187 195 184 175 181 176 133 154 128 60 11 10 6
nan nan nan nan nan nan nan nan nan nan nan nan nan nan nan nan nan nan nan nan nan nan nan nan nan nan nan nan nan nan nan nan nan nan nan nan nan 267 286 291 306 323 306 336 22 344 315 305 303 300 277 264 247 238 228 226 231 233 231 228 230 219 213 211 209 204 188 192 189 195 195 198 197 193 191 193 187 188 191 173 165 224 309 0 357 358
nan nan nan nan nan nan nan nan nan nan nan nan nan nan nan nan nan nan nan nan nan nan nan nan nan nan nan nan nan nan nan nan nan nan nan nan 251 249 270 286 295 310 318 321 16 4 325 308 303 311 288 245 242 246 238 229 232 241 244 245 239 222 218 212 205 199 195 197 201 205 201 198 194 191 197 205 200 193 194 200 177 220 256 315 347 349
nan nan nan nan nan nan nan nan nan nan nan nan nan nan nan nan nan nan nan nan nan nan nan nan nan nan nan nan nan nan nan nan nan nan 244 237 254 244 255 273 293 316 330 333 359 344 324 309 297 274 262 247 244 249 252 243 236 237 239 247 246 235 225 216 213 204 198 200 206 208 205 199 193 196 205 208 206 202 202 203 214 212 248 282 326 351
nan nan nan nan nan nan nan nan nan nan nan nan nan nan nan nan nan nan nan nan nan nan nan nan nan nan nan nan nan nan nan nan nan nan 237 239 241 240 215 249 281 296 315 322 343 322 316 308 292 290 272 260 239 247 254 252 244 242 236 246 258 247 228 221 224 217 220 214 209 210 208 200 199 207 211 210 217 213 213 209 223 224 232 258 279 320
nan nan nan nan nan nan nan nan nan nan nan nan nan nan nan nan nan nan nan nan nan nan nan nan nan nan nan nan nan nan nan nan nan nan nan 245 246 247 218 197 251 269 278 281 299 304 302 292 279 274 287 286 266 245 257 256 255 256 250 252 260 254 233 232 234 233 236 229 220 215 215 209 207 222 225 220 223 227 223 220 226 234 232 234 259 276
nan nan nan nan nan nan nan nan nan nan nan nan nan nan nan nan nan nan nan nan nan nan nan nan nan nan nan nan nan nan nan nan nan nan 269 259 255 246 234 199 240 259 262 263 272 283 287 282 287 286 290 289 286 274 276 268 267 267 261 260 267 260 252 240 240 246 244 237 233 224 224 218 215 228 229 233 233 240 238 236 233 233 231 233 240 253
nan nan nan nan nan nan nan nan nan nan nan nan nan nan nan nan nan nan nan nan nan nan nan nan nan nan nan nan nan nan nan nan nan nan nan nan 265 256 248 223 238 247 257 253 256 265 275 282 292 305 292 279 282 272 288 288 281 276 275 282 282 277 269 255 253 256 256 252 249 242 236 227 221 228 234 239 240 244 244 242 241 242 239 238 239 250
nan nan nan nan nan nan nan nan nan nan nan nan nan nan nan nan nan nan nan nan nan nan nan nan nan nan nan nan nan nan nan nan nan nan nan nan nan 270 256 232 231 234 247 249 254 262 272 279 287 288 280 280 274 283 281 281 272 267 267 280 284 281 273 258 258 262 263 265 262 260 252 241 234 230 235 238 246 256 252 253 252 253 249 244 247 257
nan nan nan nan nan nan nan nan nan nan nan nan nan nan nan nan nan nan nan nan nan nan nan nan nan nan nan nan nan nan nan nan nan nan nan nan nan nan 259 237 219 226 236 244 246 261 278 290 293 283 279 274 271 280 277 270 265 263 263 270 278 274 274 268 264 259 268 262 269 266 261 254 246 243 236 238 244 255 265 264 267 264 260 255 252 254
nan nan nan nan nan nan nan nan nan nan nan nan nan nan nan nan nan nan nan nan nan nan nan nan nan nan nan nan nan nan nan nan nan nan nan nan nan nan 259 248 232 221 235 244 239 255 273 281 281 273 268 263 261 274 268 279 271 272 267 272 277 277 278 273 269 263 266 266 264 271 272 271 266 253 247 242 244 251 263 268 268 271 270 264 259 261
nan nan nan nan nan nan nan nan nan nan nan nan nan nan nan nan nan nan nan nan nan nan nan nan nan nan nan nan nan nan nan nan nan nan nan nan nan nan 262 259 252 228 232 255 264 256 269 275 280 281 283 270 266 266 271 277 280 280 273 273 278 275 272 275 275 272 272 274 274 280 281 278 279 283 285 275 279 274 268 272 276 274 279 276 268 268
nan nan nan nan nan nan nan nan nan nan nan nan nan nan nan nan nan nan nan nan nan nan nan nan nan nan nan nan nan nan nan nan nan nan nan nan nan nan nan 261 257 244 236 255 263 260 267 275 286 287 286 291 289 291 286 281 277 272 274 282 287 283 285 282 279 279 275 280 281 282 288 291 294 294 299 288 284 278 276 282 280 282 280 283 280 276
nan nan nan nan nan nan nan nan nan nan nan nan nan nan nan nan nan nan nan nan nan nan nan nan nan nan nan nan nan nan nan nan nan nan nan nan nan nan nan nan 271 271 251 252 257 256 262 268 280 288 297 303 302 292 288 280 274 268 272 281 292 296 294 290 279 279 271 278 269 273 289 301 301 300 300 297 293 290 296 301 296 299 292 288 284 278
nan nan nan nan nan nan nan nan nan nan nan nan nan nan nan nan nan nan nan nan nan nan nan nan nan nan nan nan nan nan nan nan nan nan nan nan nan nan nan nan nan 256 250 253 253 259 265 276 288 298 296 296 293 289 284 287 279 286 282 281 283 286 284 287 287 284 284 288 283 283 289 298 300 302 300 301 301 302 308 309 309 309 308 302 291 287
nan nan nan nan nan nan nan nan nan nan nan nan nan nan nan nan nan nan nan nan nan nan nan nan nan nan nan nan nan nan nan nan nan nan nan nan nan nan nan nan nan 246 245 248 254 260 267 273 280 282 279 276 277 277 279 287 298 295 288 289 290 290 295 299 297 293 286 284 286 292 300 303 303 307 301 304 304 305 304 302 304 305 301 295 295 292
nan nan nan nan nan nan nan nan nan nan nan nan nan nan nan nan nan nan nan nan nan nan nan nan nan nan nan nan nan nan nan nan nan nan nan nan nan nan nan nan nan 239 238 242 250 258 259 263 266 267 265 262 273 287 303 298 295 299 304 299 297 295 296 302 298 291 288 284 286 299 300 303 299 301 299 306 305 307 304 302 301 300 297 300 296 293
nan nan nan nan nan nan nan nan nan nan nan nan nan nan nan nan nan nan nan nan nan nan nan nan nan nan nan nan nan nan nan nan nan nan nan nan nan nan nan nan nan 242 240 238 240 247 251 253 254 262 271 271 273 279 294 290 294 303 310 305 300 304 310 309 305 296 286 286 289 299 295 297 299 300 308 314 309 316 313 308 305 302 305 305 297 294
nan nan nan nan nan nan nan nan nan nan nan nan nan nan nan nan nan nan nan nan nan nan nan nan nan nan nan nan nan nan nan nan nan nan nan nan nan nan nan nan nan nan 236 234 235 238 243 251 253 253 264 260 247 250 279 284 284 288 293 301 304 316 316 309 299 295 294 294 298 300 298 300 300 309 313 318 314 322 320 314 313 314 318 316 309 304
nan nan nan nan nan nan nan nan nan nan nan nan nan nan nan nan nan nan nan nan nan nan nan nan nan nan nan nan nan nan nan nan nan nan nan nan nan nan nan nan nan 236 235 233 233 237 245 253 258 255 261 259 256 256 255 268 274 284 295 303 311 313 310 301 296 298 299 301 304 303 303 309 307 311 317 321 316 325 325 328 326 323 327 323 323 319
nan nan nan nan nan nan nan nan nan nan nan nan nan nan nan nan nan nan nan nan nan nan nan nan nan nan nan nan nan nan nan nan nan nan nan nan nan nan nan 231 233 236 234 232 235 240 248 250 255 257 260 259 271 270 260 261 271 279 289 309 306 299 299 302 299 302 300 300 301 300 309 310 312 318 321 321 323 326 329 333 335 332 325 327 328 324
nan nan nan nan nan nan nan 221 nan nan nan nan nan nan nan nan nan nan nan nan nan nan nan nan nan nan nan nan nan nan nan nan nan nan nan nan nan nan 230 231 231 232 233 233 234 235 237 241 249 254 255 259 269 273 272 275 276 276 275 297 303 292 296 299 299 299 302 301 302 297 305 311 313 311 314 312 314 315 324 334 337 338 332 325 330 329
nan nan nan nan nan nan nan nan nan nan nan nan nan nan nan nan nan nan nan nan nan nan nan nan nan nan nan nan nan nan nan nan nan nan nan nan nan 230 235 232 230 234 236 234 234 236 236 237 240 245 251 255 260 267 271 277 281 280 278 289 293 296 298 296 301 303 302 299 296 295 305 307 304 304 303 299 298 309 323 328 328 328 326 324 335 337
nan nan nan nan nan nan nan nan nan nan nan nan nan nan nan nan nan nan nan nan nan nan nan nan nan nan nan nan nan nan nan nan nan nan nan nan nan nan nan nan nan 236 239 240 238 238 238 239 240 243 246 248 252 259 267 269 274 275 277 284 288 298 304 299 302 307 307 302 299 294 293 290 288 288 289 291 293 307 316 316 312 314 322 329 336 333
nan nan nan nan nan nan nan nan nan nan nan nan nan nan nan nan nan nan nan nan nan nan nan nan nan nan nan nan nan nan nan nan nan nan nan nan nan nan nan nan nan nan nan 241 241 242 240 241 244 244 247 247 248 251 258 261 264 272 279 283 290 293 298 294 303 306 309 308 301 287 279 277 276 280 282 281 287 296 301 300 301 314 328 337 343 335
nan nan nan nan nan nan nan nan nan nan nan nan nan nan nan nan nan nan nan nan nan nan nan nan nan nan nan nan nan nan nan nan nan nan nan nan nan nan nan nan nan nan nan 243 239 237 238 240 243 247 249 249 249 253 253 256 262 267 275 278 286 290 294 298 295 303 310 311 297 281 273 268 270 272 277 277 276 280 288 290 286 293 304 318 329 334
nan nan nan nan nan nan nan nan nan nan nan nan nan nan nan nan nan nan nan nan nan nan nan nan nan nan nan nan nan nan nan nan nan nan nan nan nan nan nan nan nan nan nan nan 238 238 238 236 240 245 248 250 252 254 255 255 261 265 269 273 278 286 294 300 305 309 306 306 292 283 276 267 267 269 272 269 271 276 279 277 279 282 292 306 323 309
nan nan nan nan nan nan nan nan nan nan nan nan nan nan nan nan nan nan nan nan nan nan nan nan nan nan nan nan nan nan nan nan nan nan nan nan nan nan nan nan nan nan nan nan nan nan nan nan 240 242 239 241 245 250 257 260 262 264 266 264 267 272 288 301 309 300 298 300 297 294 284 272 268 269 270 271 271 270 274 279 284 289 292 302 296 292
nan nan nan nan nan nan nan nan nan nan nan nan nan nan nan nan nan nan nan nan nan nan nan nan nan nan nan nan nan nan nan nan nan nan nan nan nan nan nan nan nan nan nan nan nan nan nan nan 234 235 240 240 240 244 251 256 260 262 265 263 263 272 277 287 297 294 298 296 297 297 291 282 276 276 275 271 272 276 281 288 295 295 285 277 278 286
nan nan nan nan nan nan nan nan nan nan nan nan nan nan nan nan nan nan nan nan nan nan nan nan nan nan nan nan nan nan nan nan nan nan nan nan nan nan nan nan nan nan nan nan nan nan 236 237 243 244 243 242 241 244 248 254 257 259 263 263 262 264 271 283 293 294 297 300 298 294 291 288 283 280 277 275 275 280 287 292 291 292 286 283 285 287
nan nan nan nan nan nan nan nan nan nan nan nan nan nan nan nan nan nan nan nan nan nan nan nan nan nan nan nan nan nan nan nan nan nan nan nan nan nan nan nan nan nan nan nan nan 239 241 241 242 242 243 241 243 246 249 251 256 258 260 262 261 261 269 276 287 296 298 306 309 304 297 292 285 280 278 278 278 283 291 294 295 294 288 285 285 283
nan nan nan nan nan nan nan nan nan nan nan nan nan nan nan nan nan nan nan nan nan nan nan nan nan nan nan nan nan nan nan nan nan nan nan nan nan nan nan nan nan nan nan nan 228 230 235 237 238 239 242 243 242 242 245 248 253 254 254 259 260 260 265 273 283 295 301 309 315 313 305 298 291 286 285 285 288 295 299 296 293 288 285 291 293 293
nan nan nan nan nan nan nan nan nan nan nan nan nan nan nan nan nan nan nan nan nan nan nan nan nan nan nan nan nan nan 215 nan nan nan nan nan nan nan nan nan nan nan nan 223 225 224 225 228 232 236 237 235 237 239 240 242 248 251 249 252 257 262 265 272 283 289 294 304 313 315 312 306 301 295 291 291 301 306 300 292 284 286 287 292 294 295
nan nan nan nan nan nan nan nan nan nan nan nan nan nan nan nan nan nan nan nan nan nan nan nan nan nan nan nan 217 218 217 nan nan nan 215 212 211 213 210 218 236 234 233 229 224 221 221 221 220 219 220 224 228 236 241 240 243 250 249 250 257 263 267 270 275 282 290 295 298 301 304 306 307 303 299 300 302 296 294 292 289 287 289 292 292 291
nan nan nan nan nan nan nan nan nan nan nan nan nan nan nan nan nan nan nan nan 231 227 223 222 217 216 215 218 217 217 215 nan nan nan 216 214 212 215 215 220 227 231 232 232 233 230 226 222 220 221 224 227 232 234 241 243 244 248 248 249 256 263 265 262 263 266 270 279 287 290 293 294 298 301 303 303 301 296 292 285 285 292 295 294 291 291
nan nan nan nan nan nan nan nan nan nan nan nan nan nan nan nan nan nan nan 229 228 228 225 nan 220 219 217 217 218 218 220 213 208 208 208 209 210 217 218 222 225 229 231 230 233 230 229 231 230 226 225 226 228 229 236 244 247 247 245 245 249 254 255 253 254 258 263 271 281 285 288 286 291 299 302 301 299 296 293 289 291 295 297 297 295 296
nan nan nan nan nan nan nan nan nan nan nan nan nan nan nan nan nan nan 224 219 nan nan nan 222 218 218 216 216 217 217 214 207 201 203 207 209 213 214 215 219 223 227 232 234 237 236 236 237 235 231 231 236 239 242 243 246 249 248 246 241 241 242 242 244 249 252 256 263 271 277 281 281 281 288 291 292 292 295 295 293 294 296 299 298 298 302
nan nan nan nan nan nan nan nan nan nan nan nan nan nan nan nan 225 nan nan nan nan nan nan nan 219 220 215 215 215 216 214 210 205 205 207 209 210 212 215 220 221 223 226 227 231 236 237 240 240 239 234 234 236 244 246 250 251 251 249 243 238 237 238 240 245 250 254 257 262 266 271 274 278 280 281 286 290 293 294 292 294 295 296 297 296 298
220 nan nan nan nan nan nan nan nan nan 220 nan nan nan 222 nan nan nan nan nan nan nan nan nan 220 220 216 214 214 215 214 211 208 208 210 213 213 212 213 220 223 224 227 228 231 233 235 241 239 240 238 237 238 240 247 251 253 252 252 248 239 238 241 242 244 246 250 254 258 261 265 271 275 276 276 281 285 288 290 290 289 289 289 288 289 289
nan nan 218 nan nan nan nan nan 221 nan nan nan nan nan nan nan nan nan nan nan nan nan nan nan 220 218 216 215 213 214 215 215 212 210 209 211 212 212 214 219 222 222 223 229 228 229 230 236 238 238 240 239 240 241 242 248 252 254 256 247 239 240 242 243 246 247 248 251 255 258 261 265 267 270 272 274 278 281 282 284 283 281 281 281 282 283
nan nan nan nan nan nan nan nan nan nan nan nan nan nan nan nan nan nan nan nan nan nan nan nan 221 221 219 218 215 216 217 215 213 212 212 212 214 216 217 217 219 224 225 228 231 232 232 236 237 238 240 242 242 244 245 247 250 254 251 249 244 245 245 246 248 248 248 249 251 254 257 262 263 263 267 269 271 273 274 275 277 278 278 280 281 282
nan nan nan nan nan nan nan nan nan nan nan nan nan nan nan nan nan nan nan nan nan nan nan nan 220 nan 218 217 215 214 215 214 215 215 216 216 215 216 215 215 219 224 225 227 230 231 233 235 238 238 238 239 239 241 246 248 249 251 252 254 254 252 249 249 249 250 249 248 249 251 253 258 259 260 263 266 265 268 269 271 274 277 278 279 281 283
nan nan nan nan nan nan nan nan nan nan nan nan nan nan nan nan nan nan nan nan nan nan nan nan nan nan nan 218 216 213 212 213 214 217 218 220 220 218 218 219 221 225 228 228 229 230 233 237 239 240 241 240 241 239 239 239 240 242 243 247 251 252 253 253 253 253 253 252 251 250 252 254 255 259 262 263 265 266 269 272 274 275 276 277 278 280
nan nan nan nan nan nan nan nan nan nan nan nan nan nan nan nan nan nan nan nan nan nan nan nan nan nan nan nan 218 215 212 213 215 215 217 222 225 225 224 224 223 225 227 230 231 230 236 238 238 239 241 242 241 240 242 245 247 247 245 244 246 250 250 250 251 254 253 250 251 245 247 256 257 256 258 260 260 255 254 255 262 263 266 263 265 264
nan nan nan nan nan nan nan nan nan nan nan nan nan nan nan nan nan nan nan nan nan nan nan nan nan nan nan nan nan 218 214 214 215 216 218 222 226 228 229 228 228 227 229 229 232 233 237 237 239 240 241 243 243 244 244 245 245 245 248 249 249 250 253 254 253 256 257 255 252 254 251 251 247 246 246 252 260 260 257 254 255 257 262 265 263 262
nan nan nan nan nan nan nan nan nan nan nan nan nan nan nan nan nan nan nan nan nan nan nan nan nan nan nan 223 nan nan 218 217 215 216 220 225 228 229 230 232 233 234 233 234 235 237 239 241 242 243 243 242 243 244 244 244 244 245 247 249 250 251 252 254 255 256 257 258 255 255 255 252 249 247 250 255 258 259 262 261 257 255 259 264 268 269